Погода в Колывани

Погода в Колывани : погода сейчас, прогноз погоды и архив. Всё, что Вы хотите узнать о погоде в Колывани!

Хотите узнать прогноз погоды в Колывани? Тогда Вам сюда: Погода в Колывани

Поиск расширенной информации на нашем сайте:

Другие новости

Новости СМИ2

Главная страница сайта

Новости сайта

03.07.2017

Напоминаем, что на нашем специализированном сайте Метеоцентр.Азия вы можете получить высокодетализированные автоматические прогнозы погоды по пунктам России, СНГ и мира в авиационном формате (включающие направление и скорость ветра, видимость, явления погоды, количество и форму облачности, нижнюю и верхнюю границу облачности).


Погода в Колывани - сегодня

Время (UTC), дата Ветер
(°,м/с) 
Видим.   Явления Облачность Т
(°С)
Тd
(°С)
f(%) Тe
(°С)
Pmin
(гПа)
dP
(гПа)
Po
(мм)
O2
(г/м3)
Тmin Tmax R s Состояние
почвы
21 19.09.17 270 (З) 20000 м    10/10 1000 м 
[Sc]
+7.4 +6.2 92 +7  1017.6  1.2  750  293           
00 20.09.17 270 (З) 20000 м    10/10 1000 м 
[Sc]
+7.2 +5.7 90 +7  1019.4  1.7  751  294  +6.1        мокрая 
03 20.09.17 260 (З) 20000 м    10/10 300 м 
[Sc]
+7 +4.9 86 +6  1020.8  1.3  752  295           
06 20.09.17 240 (ЮЗ) 20000 м    10/10 300 м 
[Sc]
+8.7 +3.7 71 +8  1021.5  0.8  753  293           
09 20.09.17 240 (ЮЗ) 20000 м    10/10 300 м 
[Sc]
+8.6 +3.2 69 +8  1021.2  -0.3  752  293           
12 20.09.17 190 (Ю) 20000 м    10/10 600 м 
[Sc]
+8.3 +3.1 70 +8  1020.7  -0.4  752  294    +9.5       
15 20.09.17 тихо ()   20000 м    8/6 1000 м средняя 
[Sc|Ac trans]
+7.3 +4.9 85 +7  1019.1  -1.7  751  294           
18 20.09.17 120 (ЮВ) 4000 м  слаб. ливневой дождь  10/10 600 м кучево-дожд. 
[Cb cap]
+7.3 +5.9 91 +7  1016  -3  749  293           
21 20.09.17 130 (ЮВ) 4000 м  слаб. ливневой дождь  10/10 300 м кучево-дожд. 
[Cb cap]
+7.4 +5.9 90 +7  1011.9  -4.1  746  291           
00 21.09.17 150 (ЮВ) 20000 м  в посл. час ливневой дождь  10/10 300 м кучево-дожд. 
[Cb cap]
+7.7 +6.4 91 +9  1007.5  -4.2  742  290  +7.2      влажная 
03 21.09.17 180 (Ю) 20000 м    10/10 300 м кучево-дожд. 
[Cb cap]
+8.8 +7.4 91 +9  1004.8  -2.6  740  288           
06 21.09.17 250 (З) 20000 м    10/10 300 м кучево-дожд. 
[Cb cap]
+9.7 +8 89 +10  1003.7  -1  740  286           
09 21.09.17 270 (З) 20000 м    10/10 300 м кучево-дожд. 
[Cb cap]
+9.8 +8.4 91 +9  1003.8  0.1  740  286           
12 21.09.17 320 (СЗ) 4000 м  слаб. ливневой дождь  10/10 300 м кучево-дожд. 
[Cb cap]
+8.2 +7 92 +9  1005.3  1.3  741  289    +10.1     
15 21.09.17 310 (СЗ) 20000 м  {ливн. осадки}  10/10 600 м кучево-дожд. 
[Cb cap]
+7.2 +6 92 +7  1006.6  1.2  742  290           
18 21.09.17 290 (З) 20000 м  {ливн. осадки}  10/10 600 м кучево-дожд. 
[Cb cap]
+6.8 +5.4 91 +8  1007.4  0.8  742  291           
21 21.09.17 290 (З) 4000 м  слаб. ливневой дождь  10/10 600 м кучево-дожд. 
[Cb cap]
+6.5 +5.6 94 +7  1008.3  0.8  743  291           
00 22.09.17 300 (СЗ) 20000 м  {ливн. осадки}  10/10 600 м кучево-дожд. 
[Cb cap]
+6.1 +5.1 93 +7  1009.7  1.4  744  292  +6.1    0.7    влажная 
03 22.09.17 320 (СЗ) 4000 м  слаб. ливневой дождь  10/10 300 м кучево-дожд. 
[Cb cap]
+6.2 +5 92 +6  1011.1  1.4  745  293  +5.8         
06 22.09.17 330 (СЗ) 20000 м  {ливн. осадки}  10/10 600 м кучево-дожд. 
[Cb cap]
+6.7 +3.5 80 +7  1012.3  1.1  746  293           
09 22.09.17 280 (З) 20000 м    10/10 600 м кучево-дожд. 
[Cb cap]
+7.9 +2.2 67 +9  1012.8  0.6  746  292           
12 22.09.17 310 (СЗ) 20000 м    10/10 600 м кучево-дожд. 
[Cb cap]
+6 +0.3 67 +7  1014  1.1  747  294    +8.2  0.0     
15 22.09.17 250 (З) 20000 м    10/10 600 м кучево-дожд. 
[Cb cap]
+3.7 +1.2 84 +5  1014.5  0.3  747  297           
18 22.09.17 240 (ЮЗ) 20000 м    10/10 600 м 
[Sc]
+3 +1.6 91 +4  1013.9  -0.6  747  297           
21 22.09.17 320 (СЗ) 20000 м    10/10 600 м кучево-дожд. 
[Cb cap]
+2.5 +1.4 92 +3  1013.5  -0.4  746  298           
Время (UTC), дата Ветер
(°,м/с) 
Видим.   Явления Облачность Т
(°С)
Тd
(°С)
f(%) Тe
(°С)
Pmin
(гПа)
dP
(гПа)
Po
(мм)
O2
(г/м3)
Тmin Tmax R s Состояние
почвы

Для получения пояснительной информации подведите курсор к названию столбца.

ПОГОДА в Колывани - архив

Всё, что Вы хотите узнать о погоде в Колывани - удобно и подробно!

Выберите нужную дату (начиная с 1 января 2015* года) и нажмите кнопку "Найти".
Будут отображены архивные сводки погоды по пункту Колывань, начиная с указанной даты.


Отображать данные в формате CSV (для использования в таблицах Excel)


Внимание! Наш архив погоды предназначен исключительно для личного некоммерческого использования в познавательных целях. Если Вам необходимы официальные справки о состоянии погоды (для производственных, юридических, коммерческих и т.п. целей), обращайтесь в органы Росгидромета.

*Примечание: данная дата относится к архиву по метеостанциям СССР (Россия, СНГ, Балтия).
Архив по метеостанциям Зарубежной Европы и Азии (кроме Китая) хранится 10 дней, по другим регионам земного шара (Китай, Африка, Америка, Австралия, Океания) - 1 день.

Колывань - район местоположения метеостанции


Название, широта, долгота, высота метеостанции:
Колывань 55.3°ш. 82.8°д. 137 м над ур. моря [Российская Федерация]

Дополнительная информация

В oтличие oт бoльшинства пoгoдных сайтoв мы публикуем пoдрoбную метеoинфoрмацию в детальнoм прoфессиoнальнoм фoрмате.

Характеристики температуры и влажнoсти вoздуха измеряются на высoте 2 м в тени вдали oт зданий и деревьев.
Скoрoсть ветра измеряется на высoте 10 м (на урoвне рoста челoвека скoрoсть ветра ниже в 1.5-2 раза). Если метеoстанция нахoдится в гoрoде или в лесу, тo скoрoсть ветра занижена на 2-4 м/с пo сравнению с oткрытым местoм. Скoрoсть ветра над акватoриями крупных рек и oзёр, а также на вершинах хoлмoв на 2-5 м/с выше, чем в oбычных услoвиях.
Атмoсфернoе давление в разных тoчках местнoсти мoжет значительнo oтличаться oт давления на метеoстанции, в зависимoсти oт услoвий рельефа (при пoдъёме на 10 м давление пoнижается примернo на 1 мм рт.ст.).